Terminal Aerodrome Forecast
Issued by NWS Jacksonville, FL

Home | Current Version | Previous Version | Text Only | Print | Product List | Glossary On
Versions: 1 2 3 4 5 6 7 8 9 10 11 12 13 14 15 16 17 18 19 20 21 22 23 24 25 26 27 28
000
FTUS42 KJAX 280536
TAFGNV
TAF
KGNV 280536Z 2806/2906 15003KT P6SM FEW015 SCT250
     FM280830 00000KT 5SM BR SCT250
      TEMPO 2809/2812 2SM BR BKN003
     FM281300 04003KT P6SM SCT025
     FM281800 01005KT P6SM VCTS BKN040CB
     FM290100 13003KT P6SM FEW040 SCT100 BKN200=

USA.gov is the U.S. government's official web portal to all federal, state and local government web resources and services.